This demonstration page uses our WeatherBlox Daily Observations layout. Learn more.

40.92945, -100.16068

Hourly Observations for January 26, 2018

Temp ( °F °C ) Dew Point ( °F °C ) Humidity (%) Winds ( mph kmh ) Pressure ( in mb ) Visibility ( mi km ) Precip ( " mm )
12:15 am 00:15 Clear 44 6.8 26 -3.2 49 49 S 24 39 29.74 1007 10 16.0934 0 0
12:35 am 00:35 Clear 44 6.5 26 -3.2 50 50 S 23 37 29.74 1007 10 16.0934 0 0
12:55 am 00:55 Clear 43 6.2 26 -3.1 52 52 S 25 41 29.74 1007 10 16.0934 0 0
1:15 am 01:15 Clear 43 6 26 -3.3 52 52 S 22 35 29.74 1007 10 16.0934 0 0
1:35 am 01:35 Clear 42 5.7 26 -3.4 52 52 S 15 24 29.74 1007 10 16.0934 0 0
1:55 am 01:55 Clear 42 5.3 26 -3.5 53 53 S 17 28 29.74 1007 10 16.0934 0 0
2:15 am 02:15 Clear 42 5.4 26 -3.6 53 53 SSW 10 17 29.74 1007 10 16.0934 0 0
2:35 am 02:35 Clear 41 5.1 25 -3.7 53 53 S 20 31 29.74 1007 10 16.0934 0 0
2:55 am 02:55 Clear 41 4.8 26 -3.6 55 55 SSW 20 31 29.74 1007 10 16.0934 0 0
3:15 am 03:15 Clear 40 4.2 26 -3.5 58 58 SW 5 7 29.74 1007 10 16.0934 0 0
3:35 am 03:35 Clear 39 3.7 25 -3.9 58 58 Calm 29.77 1008 10 16.0934 0 0
3:55 am 03:55 Clear 38 3.3 25 -4 59 59 SW 7 11 29.77 1008 10 16.0934 0 0
4:15 am 04:15 Clear 37 2.9 25 -4.1 60 60 SSW 6 9 29.77 1008 10 16.0934 0 0
4:35 am 04:35 Clear 36 2.3 25 -3.9 64 64 S 8 13 29.77 1008 10 16.0934 0 0
4:55 am 04:55 Clear 35 1.5 25 -3.9 68 68 SSE 7 11 29.77 1008 10 16.0934 0 0
5:15 am 05:15 Clear 33 0.8 25 -4 71 71 S 7 11 29.8 1009 10 16.0934 0 0
5:35 am 05:35 Clear 33 0.7 24 -4.2 70 70 SSW 6 9 29.8 1009 10 16.0934 0 0
5:55 am 05:55 Clear 32 0.1 24 -4.3 73 73 Calm 29.8 1009 10 16.0934 0 0
6:15 am 06:15 Clear 28 -2.1 23 -5.2 80 80 NNW 6 9 29.8 1009 10 16.0934 0 0
6:35 am 06:35 Clear 28 -2.4 23 -5 83 83 NW 8 13 29.83 1010 10 16.0934 0 0
6:55 am 06:55 Clear 29 -1.7 23 -4.8 80 80 W 7 11 29.8 1009 10 16.0934 0 0
7:15 am 07:15 Clear 28 -2.4 23 -5 83 83 WNW 8 13 29.83 1010 10 16.0934 0 0
7:35 am 07:35 Clear 28 -2 23 -4.9 81 81 W 7 11 29.8 1009 10 16.0934 0 0
7:55 am 07:55 Sunny 28 -2.1 23 -4.8 82 82 WNW 13 20 29.8 1009 10 16.0934 0 0
8:15 am 08:15 Sunny 29 -1.8 24 -4.5 82 82 WNW 16 26 29.8 1009 10 16.0934 0 0
8:35 am 08:35 Sunny 29 -1.5 24 -4.2 82 82 WNW 17 28 29.83 1010 10 16.0934 0 0
8:55 am 08:55 Sunny 30 -1 25 -4 80 80 WNW 18 30 29.83 1010 10 16.0934 0 0
9:15 am 09:15 Sunny 31 -0.5 25 -3.7 79 79 WNW 15 24 29.83 1010 10 16.0934 0 0
9:35 am 09:35 Sunny 32 0 26 -3.6 77 77 WNW 15 24 29.85 1011 10 16.0934 0 0
9:55 am 09:55 Sunny 34 1 27 -3 75 75 WNW 17 28 29.85 1011 10 16.0934 0 0
10:15 am 10:15 Sunny 35 1.8 27 -3 71 71 WNW 16 26 29.85 1011 10 16.0934 0 0
10:35 am 10:35 Sunny 37 2.6 27 -3 67 67 WNW 18 30 29.85 1011 10 16.0934 0 0
10:55 am 10:55 Sunny 37 2.7 27 -3 66 66 WNW 18 30 29.85 1011 10 16.0934 0 0
11:15 am 11:15 Sunny 37 2.8 28 -2.2 70 70 WNW 17 28 29.88 1012 10 16.0934 0 0
11:35 am 11:35 Sunny 38 3.1 28 -2 70 70 NW 12 19 29.88 1012 10 16.0934 0 0
11:55 am 11:55 Sunny 41 5 31 -0.8 66 66 NW 20 31 29.88 1012 10 16.0934 0 0
12:15 pm 12:15 Sunny 40 4.5 31 -0.6 70 70 NW 16 26 29.91 1013 10 16.0934 0 0
12:35 pm 12:35 Mostly Cloudy 40 4.6 32 -0.2 71 71 NNW 20 31 29.94 1014 10 16.0934 0 0
12:55 pm 12:55 Cloudy 41 5.1 32 -0.2 69 69 NW 16 26 29.94 1014 10 16.0934 0 0
1:15 pm 13:15 Cloudy 41 5 31 -0.5 68 68 NW 13 20 29.97 1015 10 16.0934 0 0
1:35 pm 13:35 Cloudy 42 5.3 31 -0.5 67 67 NW 16 26 29.97 1015 10 16.0934 0 0
1:55 pm 13:55 Mostly Cloudy 42 5.5 30 -1.2 62 62 NNW 13 20 29.97 1015 10 16.0934 0 0
2:15 pm 14:15 Mostly Cloudy 41 5.2 29 -1.5 62 62 NW 9 15 29.97 1015 10 16.0934 0 0
2:35 pm 14:35 Cloudy 41 5.2 30 -1.2 64 64 WNW 14 22 30 1016 10 16.0934 0 0
2:55 pm 14:55 Cloudy 41 5 29 -1.6 63 63 NW 13 20 30 1016 10 16.0934 0 0
3:15 pm 15:15 Cloudy 41 4.8 29 -1.6 64 64 WNW 10 17 30.03 1017 10 16.0934 0 0
3:35 pm 15:35 Cloudy 40 4.5 30 -1.1 67 67 WNW 9 15 30.03 1017 10 16.0934 0 0
3:55 pm 15:55 Cloudy 39 4.1 30 -1.1 69 69 WNW 9 15 30.03 1017 10 16.0934 0 0
4:15 pm 16:15 Cloudy 39 4 30 -1.1 70 70 WNW 10 17 30.06 1018 10 16.0934 0 0
4:35 pm 16:35 Cloudy 39 4.1 30 -1 70 70 WNW 10 17 30.06 1018 10 16.0934 0 0
4:55 pm 16:55 Cloudy 39 4 31 -0.6 72 72 WNW 8 13 30.06 1018 10 16.0934 0 0
5:15 pm 17:15 Cloudy 38 3.6 31 -0.8 73 73 WNW 8 13 30.12 1020 10 16.0934 0 0
5:35 pm 17:35 Cloudy 38 3.3 31 -0.6 76 76 WNW 6 9 30.12 1020 10 16.0934 0 0
5:55 pm 17:55 Cloudy 37 2.8 30 -0.9 77 77 W 6 9 30.12 1020 10 16.0934 0 0
6:15 pm 18:15 Mostly Cloudy 36 2.3 30 -1 79 79 W 7 11 30.12 1020 10 16.0934 0 0
6:35 pm 18:35 Clear 37 2.6 30 -1.1 77 77 WNW 7 11 30.12 1020 10 16.0934 0 0
6:55 pm 18:55 Clear 36 2 30 -1.3 79 79 W 7 11 30.15 1021 10 16.0934 0 0
7:15 pm 19:15 Clear 33 0.8 29 -1.5 85 85 W 8 13 30.18 1022 10 16.0934 0 0
7:35 pm 19:35 Clear 35 1.4 30 -1.2 83 83 W 9 15 30.15 1021 10 16.0934 0 0
7:55 pm 19:55 Clear 33 0.7 28 -2 82 82 W 8 13 30.21 1023 10 16.0934 0 0
8:15 pm 20:15 Clear 34 0.9 28 -2 81 81 W 7 11 30.21 1023 10 16.0934 0 0
8:35 pm 20:35 Clear 33 0.5 28 -2.3 82 82 W 8 13 30.21 1023 10 16.0934 0 0
8:55 pm 20:55 Clear 32 0.1 28 -2.5 83 83 WSW 6 9 30.21 1023 10 16.0934 0 0
9:15 pm 21:15 Clear 32 -0.1 27 -3 81 81 W 5 7 30.24 1024 10 16.0934 0 0
9:35 pm 21:35 Clear 31 -0.4 26 -3.5 80 80 W 8 13 30.24 1024 10 16.0934 0 0
9:55 pm 21:55 Clear 32 0.2 26 -3.5 76 76 W 10 17 30.24 1024 10 16.0934 0 0
10:15 pm 22:15 Clear 32 -0.2 25 -3.9 76 76 W 9 15 30.24 1024 10 16.0934 0 0
10:35 pm 22:35 Clear 32 0 25 -4 75 75 W 9 15 30.24 1024 10 16.0934 0 0
10:55 pm 22:55 Clear 31 -0.4 24 -4.5 74 74 W 10 17 30.24 1024 10 16.0934 0 0
11:15 pm 23:15 Clear 30 -1 24 -4.6 77 77 W 10 17 30.24 1024 10 16.0934 0 0
11:35 pm 23:35 Clear 31 -0.4 24 -4.6 74 74 W 9 15 30.24 1024 10 16.0934 0 0
11:55 pm 23:55 Clear 31 -0.8 23 -4.9 74 74 W 9 15 30.27 1025 10 16.0934 0 0

Powered by AerisWeather